When you browse on this site, cookies collect data to enhance your experience and personalize the content and advertising you see.
Visit our Privacy Policy to learn more. By continuing to use the site, you agree to this use of cookies and data.
  • In Sweden
  • List of Countries
  • For 7 days
  • Water Temperature
  • Weather Map
  • Weather Widgets
  • user-avatar
    Login

    Hourly Weather Tromsø

    Today, 30 May, Saturday

    Time Temperature Precipitation Wind Pressure Humidity
    00:00 +5°C° 0.1 mm 2 mps 762 mmHg 97%
    01:00 +5°C° 0 mm 2 mps 763 mmHg 97%
    02:00 +5°C° 0.1 mm 2 mps 763 mmHg 97%
    03:00 +5°C° 0.1 mm 2 mps 763 mmHg 97%
    04:00 +6°C° 0.1 mm 1 mps 764 mmHg 97%
    05:00 +5°C° 0 mm 2 mps 764 mmHg 97%
    06:00 +5°C° 0 mm 2 mps 764 mmHg 97%
    07:00 +6°C° 0 mm 2 mps 765 mmHg 96%
    08:00 +6°C° 0 mm 2 mps 765 mmHg 96%
    09:00 +6°C° 0 mm 2 mps 765 mmHg 95%
    10:00 +6°C° 0 mm 2 mps 765 mmHg 94%
    11:00 +7°C° 0 mm 2 mps 765 mmHg 91%
    12:00 +8°C° 0 mm 2 mps 766 mmHg 88%
    13:00 +8°C° 0 mm 2 mps 766 mmHg 85%
    14:00 +8°C° 0 mm 2 mps 766 mmHg 86%
    15:00 +8°C° 0 mm 3 mps 765 mmHg 87%
    16:00 +8°C° 0 mm 3 mps 765 mmHg 88%
    17:00 +8°C° 0 mm 3 mps 765 mmHg 88%
    18:00 +8°C° 0 mm 3 mps 765 mmHg 88%
    19:00 +8°C° 0 mm 3 mps 765 mmHg 88%
    20:00 +8°C° 0 mm 3 mps 765 mmHg 88%
    21:00 +8°C° 0 mm 2 mps 765 mmHg 88%
    22:00 +8°C° 0 mm 2 mps 764 mmHg 88%
    23:00 +7°C° 0 mm 2 mps 765 mmHg 88%

    Tomorrow, 31 May, Sunday

    Time Temperature Precipitation Wind Pressure Humidity
    00:00 +7°C° 0 mm 2 mps 765 mmHg 88%
    01:00 +7°C° 0 mm 2 mps 765 mmHg 89%
    02:00 +7°C° 0 mm 2 mps 765 mmHg 88%
    03:00 +8°C° 0 mm 3 mps 764 mmHg 87%
    04:00 +8°C° 0 mm 3 mps 764 mmHg 86%
    05:00 +10°C° 0 mm 3 mps 764 mmHg 82%
    06:00 +11°C° 0 mm 3 mps 764 mmHg 78%
    07:00 +12°C° 0 mm 3 mps 764 mmHg 74%
    08:00 +13°C° 0 mm 3 mps 764 mmHg 69%
    09:00 +14°C° 0 mm 3 mps 764 mmHg 64%
    10:00 +16°C° 0 mm 2 mps 764 mmHg 58%
    11:00 +17°C° 0 mm 3 mps 764 mmHg 56%
    12:00 +18°C° 0 mm 3 mps 764 mmHg 54%
    13:00 +18°C° 0 mm 3 mps 764 mmHg 52%
    14:00 +19°C° 0 mm 3 mps 763 mmHg 51%
    15:00 +19°C° 0 mm 3 mps 763 mmHg 50%
    16:00 +19°C° 0 mm 3 mps 763 mmHg 50%
    17:00 +19°C° 0 mm 2 mps 763 mmHg 52%
    18:00 +18°C° 0 mm 2 mps 763 mmHg 54%
    19:00 +18°C° 0 mm 2 mps 763 mmHg 56%
    20:00 +18°C° 0 mm 1 mps 762 mmHg 61%
    21:00 +15°C° 0 mm 1 mps 762 mmHg 67%
    22:00 +14°C° 0 mm 1 mps 762 mmHg 72%
    23:00 +13°C° 0 mm 1 mps 762 mmHg 74%

    Day after tomorrow, 1 June, Monday

    Time Temperature Precipitation Wind Pressure Humidity
    00:00 +13°C° 0 mm 1 mps 762 mmHg 75%
    01:00 +12°C° 0 mm 1 mps 761 mmHg 76%
    02:00 +13°C° 0 mm 1 mps 761 mmHg 75%
    03:00 +13°C° 0 mm 1 mps 761 mmHg 74%
    04:00 +14°C° 0 mm 1 mps 760 mmHg 72%
    05:00 +15°C° 0 mm 1 mps 760 mmHg 67%
    06:00 +16°C° 0 mm 1 mps 761 mmHg 62%
    07:00 +16°C° 0 mm 1 mps 761 mmHg 57%
    08:00 +18°C° 0 mm 1 mps 760 mmHg 52%
    09:00 +18°C° 0 mm 2 mps 760 mmHg 47%
    10:00 +19°C° 0 mm 2 mps 760 mmHg 43%
    11:00 +19°C° 0 mm 2 mps 760 mmHg 41%
    12:00 +20°C° 0 mm 3 mps 760 mmHg 40%
    13:00 +20°C° 0 mm 3 mps 760 mmHg 39%
    14:00 +20°C° 0 mm 3 mps 759 mmHg 40%
    15:00 +20°C° 0 mm 3 mps 759 mmHg 41%
    16:00 +20°C° 0 mm 2 mps 759 mmHg 42%
    17:00 +19°C° 0 mm 2 mps 758 mmHg 44%
    18:00 +19°C° 0 mm 2 mps 758 mmHg 46%
    19:00 +18°C° 0 mm 2 mps 758 mmHg 48%
    20:00 +17°C° 0 mm 2 mps 758 mmHg 54%
    21:00 +15°C° 0 mm 1 mps 758 mmHg 61%
    22:00 +14°C° 0 mm 1 mps 757 mmHg 67%
    23:00 +13°C° 0 mm 1 mps 757 mmHg 70%

    2 June, Tuesday

    Time Temperature Precipitation Wind Pressure Humidity
    00:00 +13°C° 0 mm 1 mps 757 mmHg 72%
    01:00 +12°C° 0 mm 1 mps 757 mmHg 75%
    02:00 +12°C° 0 mm 1 mps 756 mmHg 73%
    03:00 +13°C° 0 mm 1 mps 756 mmHg 71%
    04:00 +13°C° 0 mm 1 mps 756 mmHg 69%
    05:00 +14°C° 0 mm 2 mps 756 mmHg 65%
    06:00 +14°C° 0 mm 2 mps 756 mmHg 60%
    07:00 +15°C° 0 mm 2 mps 755 mmHg 55%
    08:00 +14°C° 0 mm 3 mps 755 mmHg 53%
    09:00 +16°C° 0 mm 3 mps 755 mmHg 51%
    10:00 +16°C° 0 mm 3 mps 755 mmHg 49%
    11:00 +17°C° 0 mm 3 mps 754 mmHg 48%
    12:00 +17°C° 0 mm 3 mps 754 mmHg 47%
    13:00 +17°C° 0 mm 3 mps 753 mmHg 46%
    14:00 +18°C° 0 mm 3 mps 753 mmHg 46%
    15:00 +18°C° 0 mm 3 mps 752 mmHg 45%
    16:00 +18°C° 0 mm 3 mps 752 mmHg 44%
    17:00 +18°C° 0 mm 3 mps 752 mmHg 45%
    18:00 +17°C° 0 mm 2 mps 751 mmHg 46%
    19:00 +17°C° 0 mm 2 mps 751 mmHg 48%
    20:00 +16°C° 0 mm 2 mps 750 mmHg 53%
    21:00 +14°C° 0 mm 1 mps 750 mmHg 58%
    22:00 +13°C° 0 mm 1 mps 750 mmHg 63%
    23:00 +13°C° 0 mm 1 mps 749 mmHg 64%

    3 June, Wednesday

    Time Temperature Precipitation Wind Pressure Humidity
    00:00 +12°C° 0 mm 1 mps 749 mmHg 66%
    01:00 +12°C° 0 mm 1 mps 748 mmHg 67%
    02:00 +12°C° 0.1 mm 2 mps 748 mmHg 68%
    03:00 +12°C° 0.1 mm 2 mps 748 mmHg 68%
    04:00 +12°C° 0.1 mm 2 mps 748 mmHg 69%
    05:00 +12°C° 0.5 mm 2 mps 748 mmHg 74%
    06:00 +10°C° 0.5 mm 2 mps 748 mmHg 79%
    07:00 +9°C° 0.5 mm 2 mps 749 mmHg 85%
    08:00 +9°C° 0.5 mm 2 mps 749 mmHg 87%
    09:00 +8°C° 0.5 mm 2 mps 749 mmHg 89%
    10:00 +7°C° 0.5 mm 3 mps 750 mmHg 92%
    11:00 +7°C° 0.3 mm 2 mps 750 mmHg 92%
    12:00 +6°C° 0.3 mm 2 mps 750 mmHg 92%
    13:00 +6°C° 0.3 mm 2 mps 750 mmHg 92%
    14:00 +6°C° 0.1 mm 2 mps 751 mmHg 90%
    15:00 +6°C° 0.1 mm 2 mps 751 mmHg 89%
    16:00 +6°C° 0.1 mm 2 mps 751 mmHg 88%
    17:00 +6°C° 0 mm 2 mps 751 mmHg 85%
    18:00 +6°C° 0 mm 2 mps 751 mmHg 83%
    19:00 +7°C° 0 mm 1 mps 751 mmHg 80%
    20:00 +6°C° 0 mm 1 mps 751 mmHg 81%
    21:00 +6°C° 0 mm 1 mps 751 mmHg 82%
    22:00 +6°C° 0 mm 1 mps 751 mmHg 83%
    23:00 +6°C° 0 mm 1 mps 751 mmHg 85%

    4 June, Thursday

    Time Temperature Precipitation Wind Pressure Humidity
    00:00 +5°C° 0 mm 1 mps 751 mmHg 86%
    01:00 +4°C° 0 mm 0 mps 750 mmHg 88%
    02:00 +4°C° 0 mm 0 mps 750 mmHg 85%
    03:00 +4°C° 0 mm 0 mps 750 mmHg 83%
    04:00 +5°C° 0 mm 0 mps 750 mmHg 80%
    05:00 +5°C° 0 mm 0 mps 749 mmHg 75%
    06:00 +7°C° 0 mm 1 mps 749 mmHg 70%
    07:00 +8°C° 0 mm 1 mps 748 mmHg 65%
    08:00 +8°C° 0 mm 1 mps 748 mmHg 64%
    09:00 +9°C° 0 mm 1 mps 748 mmHg 62%
    10:00 +8°C° 0 mm 2 mps 748 mmHg 60%
    11:00 +9°C° 0 mm 2 mps 747 mmHg 60%
    12:00 +9°C° 0 mm 2 mps 747 mmHg 59%
    13:00 +10°C° 0 mm 2 mps 747 mmHg 58%
    14:00 +10°C° 0 mm 2 mps 747 mmHg 58%
    15:00 +12°C° 0 mm 2 mps 746 mmHg 57%
    16:00 +11°C° 0 mm 3 mps 746 mmHg 57%
    17:00 +12°C° 0 mm 2 mps 745 mmHg 58%
    18:00 +12°C° 0 mm 2 mps 745 mmHg 59%
    19:00 +12°C° 0 mm 2 mps 745 mmHg 59%
    20:00 +12°C° 0 mm 2 mps 744 mmHg 62%
    21:00 +10°C° 0 mm 2 mps 744 mmHg 66%
    22:00 +10°C° 0 mm 2 mps 744 mmHg 69%
    23:00 +9°C° 0 mm 2 mps 743 mmHg 72%
    Show more